This demonstration page uses our WeatherBlox Daily Observations layout. Learn more.

36.19886, -115.1175

Hourly Observations for August 13, 2020

Temp ( °F °C ) Dew Point ( °F °C ) Humidity (%) Winds ( mph kmh ) Pressure ( in mb ) Visibility ( mi km ) Precip ( " mm )
12:53 am 00:53 Clear 89 31.7 31 -0.6 12 12 Calm 29.83 1010 10 16.0934 0 0
1:53 am 01:53 Clear 86 30 31 -0.6 14 14 NNW 3 6 29.83 1010 10 16.0934 0 0
2:53 am 02:53 Clear 84 28.9 29 -1.7 13 13 NNW 5 7 29.83 1010 10 16.0934 0 0
3:53 am 03:53 Clear 83 28.3 34 1.1 17 17 WNW 6 9 29.84 1010 10 16.0934 0 0
4:53 am 04:53 Clear 82 27.8 28 -2.2 14 14 NW 5 7 29.85 1011 10 16.0934 0 0
5:53 am 05:53 Clear 81 27.2 27 -2.8 14 14 NW 6 9 29.86 1011 10 16.0934 0 0
6:53 am 06:53 Sunny 83 28.3 29 -1.7 14 14 NW 7 11 29.87 1012 10 16.0934 0 0
7:53 am 07:53 Sunny 86 30 31 -0.6 14 14 NNW 5 7 29.88 1012 10 16.0934 0 0
8:53 am 08:53 Sunny 93 33.9 31 -0.6 11 11 N 3 6 29.88 1012 10 16.0934 0 0
9:53 am 09:53 Sunny 95 35 31 -0.6 10 10 Calm 29.89 1012 10 16.0934 0 0
10:53 am 10:53 Sunny 99 37.2 37 2.8 12 12 SE 8 13 29.88 1012 10 16.0934 0 0
11:53 am 11:53 Sunny 102 38.9 38 3.3 11 11 SE 10 17 29.87 1011 10 16.0934 0 0
12:53 pm 12:53 Sunny 106 41.1 41 5 11 11 SE 8 13 29.84 1011 10 16.0934 0 0
1:53 pm 13:53 Sunny 107 41.7 44 6.7 12 12 S 16 26 29.82 1010 10 16.0934 0 0
2:53 pm 14:53 Sunny 106 41.1 44 6.7 12 12 SSW 16 26 29.81 1009 10 16.0934 0 0
3:53 pm 15:53 Sunny 109 42.8 42 5.6 10 10 WNW 8 13 29.8 1009 10 16.0934 0 0
4:53 pm 16:53 Sunny 107 41.7 42 5.6 11 11 Calm 29.8 1009 10 16.0934 0 0
5:53 pm 17:53 Sunny 107 41.7 41 5 11 11 SW 8 13 29.79 1009 10 16.0934 0 0
6:53 pm 18:53 Sunny 105 40.6 40 4.4 11 11 NNW 14 22 29.78 1009 10 16.0934 0 0
7:53 pm 19:53 Clear 103 39.4 40 4.4 11 11 NW 10 17 29.8 1009 10 16.0934 0 0
8:53 pm 20:53 Clear 100 37.8 41 5 13 13 W 9 15 29.81 1010 10 16.0934 0 0
9:53 pm 21:53 Clear 98 36.7 42 5.6 15 15 W 7 11 29.82 1010 10 16.0934 0 0
10:53 pm 22:53 Clear 95 35 43 6.1 17 17 WSW 7 11 29.83 1010 10 16.0934 0 0
11:53 pm 23:53 Clear 93 33.9 44 6.7 18 18 WNW 7 11 29.83 1010 10 16.0934 0 0

Powered by AerisWeather